Ellington Field, TX

2:24 AM CDT on July 21, 2017 (GMT -0500)
Ellington

Weather History for KEFD - November, 2011

Change the Weather History Date:

Thursday, November 17, 2011

  Actual Average Record
Temperature  
Mean Temperature 58 °F -  
Max Temperature 66 °F 70 °F 84 °F (2013)
Min Temperature 51 °F 52 °F 37 °F (2014)
Degree Days  
Heating Degree Days 6    
Growing Degree Days 8 (Base 50)    
Moisture  
Dew Point 41 °F    
Average Humidity 54    
Maximum Humidity 77    
Minimum Humidity 30    
Precipitation  
Precipitation 0.00 in - - ()
Sea Level Pressure  
Sea Level Pressure 30.31 in    
Wind  
Wind Speed 12 mph (NNE)    
Max Wind Speed 17 mph    
Max Gust Speed 22 mph    
Visibility 10 miles    
Events      
Averages and records for this station are not official NWS values.
T = Trace of Precipitation, MM = Missing Value Source: NWS Daily Summary

Daily Weather History Graph

Daily Weather History Graph

Search for Another Location

Airport or City:

Trip Planner

Search our weather history database for the weather conditions in past years. The results will help you decide how hot, cold, wet, or windy it might be!

Date:

Astronomy

Nov. 17, 2011 Rise Set
Actual Time 6:46 AM CST 5:24 PM CST
Civil Twilight 6:21 AM CST 5:49 PM CST
Nautical Twilight 5:52 AM CST 6:18 PM CST
Astronomical Twilight 5:23 AM CST 6:46 PM CST
Moon 11:35 PM CST (11/17) 12:03 PM CST (11/17)
Length of Visible Light 11h 28m
Length of Day
10h 37m
Waning Gibbous, 59% of the Moon is Illuminated
Nov 17
Waning Gibbous
Nov 18
Last Quarter
Nov 25
New
Dec 2
First Quarter
Dec 10
Full

Hourly Weather History & Observations

Time (CST) Temp. Dew Point Humidity Pressure Visibility Wind Dir Wind Speed Gust Speed Precip Events Conditions
12:50 AM 62.6 °F 55.4 °F 77% 30.16 in 10.0 mi North 15.0 mph - N/A   Mostly Cloudy
1:50 AM 62.6 °F 55.4 °F 77% 30.18 in 10.0 mi NNW 11.5 mph - N/A   Mostly Cloudy
2:50 AM 62.6 °F 55.4 °F 77% 30.22 in 10.0 mi North 11.5 mph - N/A   Mostly Cloudy
3:50 AM 62.6 °F 55.4 °F 77% 30.23 in 10.0 mi North 13.8 mph - N/A   Overcast
4:50 AM 57.2 °F 46.4 °F 67% 30.28 in 10.0 mi North 16.1 mph - N/A   Partly Cloudy
5:50 AM 53.6 °F 39.2 °F 58% 30.32 in 10.0 mi North 15.0 mph - N/A   Partly Cloudy
6:50 AM 53.6 °F 41.0 °F 62% 30.34 in 10.0 mi NNE 17.3 mph - N/A   Clear
7:50 AM 53.6 °F 41.0 °F 62% 30.39 in 10.0 mi NNE 11.5 mph 21.9 mph N/A   Clear
9:50 AM 57.2 °F 39.2 °F 51% 30.42 in 10.0 mi NNE 12.7 mph - N/A   Clear
10:50 AM 59.0 °F 39.2 °F 48% 30.40 in 10.0 mi NNE 11.5 mph - N/A   Clear
11:50 AM 60.8 °F 41.0 °F 48% 30.37 in 10.0 mi North 11.5 mph - N/A   Clear
12:50 PM 64.4 °F 37.4 °F 37% 30.34 in 10.0 mi NNE 6.9 mph - N/A   Clear
1:50 PM 66.2 °F 35.6 °F 32% 30.32 in 10.0 mi NNE 12.7 mph - N/A   Clear
2:50 PM 66.2 °F 33.8 °F 30% 30.31 in 10.0 mi NNE 9.2 mph 18.4 mph N/A   Clear
3:50 PM 66.2 °F 33.8 °F 30% 30.31 in 10.0 mi North 9.2 mph - N/A   Clear
4:50 PM 64.4 °F 33.8 °F 32% 30.31 in 10.0 mi North 5.8 mph - N/A   Clear
5:50 PM 59.0 °F 35.6 °F 42% 30.31 in 10.0 mi NNE 5.8 mph - N/A   Clear
6:50 PM 55.4 °F 35.6 °F 47% 30.31 in 10.0 mi NNE 4.6 mph - N/A   Clear
7:50 PM 53.6 °F 37.4 °F 54% 30.32 in 10.0 mi NE 6.9 mph - N/A   Clear
8:50 PM 51.8 °F 37.4 °F 58% 30.32 in 10.0 mi NE 5.8 mph - N/A   Clear
9:50 PM 51.8 °F 37.4 °F 58% 30.32 in 10.0 mi NE 5.8 mph - N/A   Clear